| time (UTC) | temp C | wind direction | speed KPH | gust KPH | rain 1hr cm | rain 24hr cm | rain mn cm | humidity % | barometer mb |
| 20260505051550 | 5 | 181 | 4.8 | 11.3 | 0.00 | 0.51 | 0.00 | 86 | 1008.0 |
| 20260505050121 | 5 | 206 | 3.2 | 11.3 | 0.00 | 0.51 | 0.00 | 85 | 1007.6 |
| 20260505041550 | 6 | 200 | 3.2 | 9.7 | 0.00 | 0.56 | 0.00 | 84 | 1006.8 |
| 20260505040041 | 6 | 186 | 3.2 | 9.7 | 0.00 | 0.56 | 0.00 | 84 | 1006.6 |
| 20260505034532 | 5 | 172 | 1.6 | 6.4 | 0.00 | 0.66 | 0.00 | 83 | 1006.3 |
| 20260505033029 | 6 | 196 | 1.6 | 6.4 | 0.00 | 0.66 | 0.00 | 82 | 1006.1 |
| 20260505031529 | 6 | 178 | 1.6 | 9.7 | 0.00 | 0.66 | 0.00 | 81 | 1005.8 |
| 20260505030030 | 6 | 195 | 1.6 | 8.0 | 0.00 | 0.66 | 0.00 | 80 | 1005.7 |
| 20260505024525 | 6 | 182 | 4.8 | 9.7 | 0.00 | 0.71 | 0.66 | 79 | 1005.6 |
| 20260505023021 | 7 | 180 | 3.2 | 11.3 | 0.00 | 0.71 | 0.66 | 78 | 1005.5 |
| 20260505021525 | 7 | 180 | 1.6 | 9.7 | 0.00 | 0.71 | 0.66 | 77 | 1005.2 |
| 20260505020020 | 7 | 213 | 4.8 | 11.3 | 0.00 | 0.71 | 0.66 | 75 | 1005.0 |
| 20260505014518 | 8 | 233 | 4.8 | 12.9 | 0.00 | 0.71 | 0.66 | 74 | 1004.9 |
| 20260505013019 | 8 | 179 | 4.8 | 16.1 | 0.00 | 0.71 | 0.66 | 73 | 1004.9 |
| 20260505011524 | 9 | 196 | 4.8 | 14.5 | 0.00 | 0.71 | 0.66 | 71 | 1004.8 |
| 20260505010016 | 10 | 191 | 4.8 | 12.9 | 0.00 | 0.71 | 0.66 | 68 | 1004.7 |
| 20260505004522 | 10 | 262 | 6.4 | 16.1 | 0.00 | 0.79 | 0.66 | 67 | 1004.5 |
| 20260505003012 | 10 | 198 | 1.6 | 11.3 | 0.00 | 0.79 | 0.66 | 64 | 1004.4 |
| 20260505001512 | 10 | 142 | 6.4 | 20.9 | 0.00 | 0.79 | 0.66 | 62 | 1004.4 |
| 20260505000017 | 11 | 232 | 4.8 | 14.5 | 0.00 | 0.79 | 0.66 | 59 | 1004.4 |
| 20260504234509 | 11 | 236 | 3.2 | 12.9 | 0.00 | 0.86 | 0.66 | 57 | 1003.9 |
| 20260504233008 | 11 | 262 | 3.2 | 14.5 | 0.00 | 0.86 | 0.66 | 55 | 1004.0 |
| 20260504231505 | 11 | 218 | 1.6 | 11.3 | 0.00 | 0.86 | 0.66 | 53 | 1003.6 |
| 20260504230011 | 12 | 252 | 3.2 | 17.7 | 0.00 | 1.32 | 0.66 | 50 | 1003.2 |
| 20260504224502 | 12 | 234 | 4.8 | 17.7 | 0.00 | 1.32 | 0.66 | 50 | 1003.1 |
| 20260504223001 | 12 | 220 | 8.0 | 16.1 | 0.00 | 1.32 | 0.66 | 49 | 1002.7 |
| 20260504221601 | 12 | 198 | 9.7 | 17.7 | 0.00 | 1.32 | 0.66 | 51 | 1002.7 |
| 20260504214601 | 12 | 259 | 6.4 | 24.1 | 0.03 | 1.65 | 0.66 | 49 | 1002.3 |
| 20260504213130 | 13 | 241 | 8.0 | 24.1 | 0.03 | 1.65 | 0.66 | 49 | 1002.3 |
| 20260504213043 | 13 | 225 | 6.4 | 24.1 | 0.03 | 1.65 | 0.66 | 49 | 1002.5 |
| 20260504211603 | 13 | 317 | 4.8 | 30.6 | 0.03 | 1.65 | 0.66 | 51 | 1002.1 |
| 20260504210052 | 13 | 301 | 9.7 | 27.4 | 0.00 | 1.63 | 0.64 | 51 | 1002.1 |
| 20260504204554 | 13 | 222 | 8.0 | 27.4 | 0.00 | 1.88 | 0.64 | 52 | 1001.9 |
| 20260504203102 | 13 | 225 | 9.7 | 29.0 | 0.00 | 1.88 | 0.64 | 52 | 1001.7 |
| 20260504201545 | 13 | 280 | 4.8 | 40.2 | 0.00 | 1.88 | 0.64 | 55 | 1001.4 |
| 20260504200044 | 13 | 231 | 14.5 | 35.4 | 0.00 | 1.88 | 0.64 | 56 | 1001.0 |
| 20260504194555 | 13 | 215 | 11.3 | 35.4 | 0.00 | 1.98 | 0.64 | 59 | 1000.8 |
| 20260504193050 | 13 | 329 | 8.0 | 24.1 | 0.00 | 1.98 | 0.64 | 58 | 1000.4 |
| 20260504191535 | 13 | 240 | 9.7 | 29.0 | 0.00 | 1.98 | 0.64 | 59 | 1000.4 |
| 20260504190031 | 13 | 317 | 11.3 | 30.6 | 0.00 | 1.98 | 0.64 | 61 | 1000.4 |
| 20260504184529 | 12 | 257 | 8.0 | 29.0 | 0.00 | 2.01 | 0.64 | 62 | 1000.1 |
| 20260504183027 | 12 | 298 | 8.0 | 32.2 | 0.00 | 2.01 | 0.64 | 65 | 1000.0 |
| 20260504181523 | 12 | 218 | 9.7 | 30.6 | 0.00 | 2.01 | 0.64 | 64 | 999.7 |
| 20260504180021 | 12 | 261 | 16.1 | 33.8 | 0.00 | 2.01 | 0.64 | 64 | 999.9 |
| 20260504174518 | 11 | 248 | 14.5 | 35.4 | 0.00 | 2.01 | 0.64 | 68 | 999.3 |
| 20260504173024 | 11 | 259 | 12.9 | 33.8 | 0.00 | 2.01 | 0.64 | 70 | 999.3 |
| 20260504171518 | 11 | 267 | 11.3 | 35.4 | 0.00 | 2.01 | 0.64 | 71 | 999.0 |
| 20260504110116 | 2 | 350 | 19.3 | 54.7 | 0.13 | 1.85 | 0.51 | 90 | 989.0 |
| 20260504081517 | 3 | 180 | 12.9 | 37.0 | 0.03 | 1.65 | 0.30 | 90 | 980.7 |